Time,TemperatureF,DewpointF,PressureIn,WindDirection,WindDirectionDegrees,WindSpeedMPH,WindSpeedGustMPH,Humidity,HourlyPrecipIn,Conditions,Clouds,dailyrainin,SoftwareType,DateUTC
2013-01-16 00:00:00,29.4,24.6,30.18,East,91,1.0,1.0,82,0.00,,CLR,0.00,VWS V14.01,2013-01-16 05:00:00,
2013-01-16 00:04:00,29.4,24.6,30.18,SE,134,1.0,1.0,82,0.00,,CLR,0.00,VWS V14.01,2013-01-16 05:04:00,
2013-01-16 00:09:00,29.5,25.0,30.18,ESE,122,0.0,1.0,83,0.00,,CLR,0.00,VWS V14.01,2013-01-16 05:09:00,
2013-01-16 00:14:00,29.5,25.0,30.18,ENE,75,0.0,2.0,83,0.00,,CLR,0.00,VWS V14.01,2013-01-16 05:14:00,
2013-01-16 00:19:00,29.4,24.9,30.17,SE,134,1.0,2.0,83,0.00,,CLR,0.00,VWS V14.01,2013-01-16 05:19:00,
2013-01-16 00:24:00,29.5,25.0,30.17,ESE,113,1.0,2.0,83,0.00,,CLR,0.00,VWS V14.01,2013-01-16 05:24:00,
2013-01-16 00:29:00,29.5,25.0,30.16,ESE,122,2.0,2.0,83,0.00,,CLR,0.00,VWS V14.01,2013-01-16 05:29:00,
2013-01-16 00:30:00,30.0,25.2,30.13,SE,131,2.0,4.0,82,0.00,,OVC,0.00,VWS V14.01,2013-01-16 05:30:00,
2013-01-16 00:34:00,29.5,25.0,30.16,SW,229,0.0,3.0,83,0.00,,CLR,0.00,VWS V14.01,2013-01-16 05:34:00,
2013-01-16 00:40:00,29.5,25.0,30.16,South,170,0.0,3.0,83,0.00,,CLR,0.00,VWS V14.01,2013-01-16 05:40:00,
2013-01-16 00:45:00,29.6,25.4,30.16,SW,218,1.0,3.0,84,0.00,,SCT120,0.00,VWS V14.01,2013-01-16 05:45:00,
2013-01-16 00:50:00,29.6,25.1,30.16,South,170,1.0,3.0,83,0.00,,SCT120,0.00,VWS V14.01,2013-01-16 05:50:00,
2013-01-16 00:55:00,29.6,25.1,30.15,SE,139,1.0,3.0,83,0.00,,SCT120,0.00,VWS V14.01,2013-01-16 05:55:00,
2013-01-16 01:00:00,29.7,25.5,30.14,SSE,160,1.0,3.0,84,0.00,,SCT120,0.00,VWS V14.01,2013-01-16 06:00:00,
2013-01-16 01:05:00,29.7,25.2,30.14,SSE,152,1.0,2.0,83,0.00,,SCT120,0.00,VWS V14.01,2013-01-16 06:05:00,
2013-01-16 01:10:00,29.8,25.3,30.14,SSW,203,0.0,2.0,83,0.00,,SCT120,0.00,VWS V14.01,2013-01-16 06:10:00,
2013-01-16 01:15:00,29.8,25.3,30.13,South,190,2.0,2.0,83,0.00,,SCT120,0.00,VWS V14.01,2013-01-16 06:15:00,
2013-01-16 01:20:00,29.8,25.3,30.14,SSW,193,1.0,4.0,83,0.00,,SCT120,0.00,VWS V14.01,2013-01-16 06:20:00,
2013-01-16 01:25:00,29.9,25.4,30.14,SE,141,1.0,4.0,83,0.00,,SCT120,0.00,VWS V14.01,2013-01-16 06:25:00,
2013-01-16 01:30:00,29.9,25.4,30.13,SSW,198,2.0,4.0,83,0.00,,SCT120,0.00,VWS V14.01,2013-01-16 06:30:00,
2013-01-16 01:35:00,30.0,25.2,30.13,South,184,2.0,3.0,82,0.00,,SCT120,0.00,VWS V14.01,2013-01-16 06:35:00,
2013-01-16 01:41:00,30.1,25.3,30.13,SE,134,1.0,4.0,82,0.00,,SCT120,0.00,VWS V14.01,2013-01-16 06:41:00,
2013-01-16 01:46:00,30.1,25.0,30.13,SSE,153,0.0,4.0,81,0.00,,OVC110,0.00,VWS V14.01,2013-01-16 06:46:00,
2013-01-16 01:51:00,30.1,25.0,30.12,ESE,121,0.0,4.0,81,0.00,,OVC110,0.00,VWS V14.01,2013-01-16 06:51:00,
2013-01-16 01:56:00,30.2,25.1,30.13,South,184,2.0,4.0,81,0.00,,OVC110,0.00,VWS V14.01,2013-01-16 06:56:00,
2013-01-16 02:00:00,30.4,24.7,30.09,South,169,1.0,4.0,79,0.00,,OVC,0.00,VWS V14.01,2013-01-16 07:00:00,
2013-01-16 02:01:00,30.2,25.1,30.12,SW,221,0.0,4.0,81,0.00,,OVC110,0.00,VWS V14.01,2013-01-16 07:01:00,
2013-01-16 02:06:00,30.2,25.1,30.13,SSW,193,1.0,4.0,81,0.00,,OVC110,0.00,VWS V14.01,2013-01-16 07:06:00,
2013-01-16 02:11:00,30.3,24.9,30.12,SSE,160,1.0,4.0,80,0.00,,OVC110,0.00,VWS V14.01,2013-01-16 07:11:00,
2013-01-16 02:17:00,30.3,24.9,30.12,SE,138,1.0,4.0,80,0.00,,OVC110,0.00,VWS V14.01,2013-01-16 07:17:00,
2013-01-16 02:22:00,30.3,24.9,30.13,SE,145,1.0,4.0,80,0.00,,OVC110,0.00,VWS V14.01,2013-01-16 07:22:00,
2013-01-16 02:27:00,30.3,24.9,30.12,SSE,158,1.0,4.0,80,0.00,,OVC110,0.00,VWS V14.01,2013-01-16 07:27:00,
2013-01-16 02:30:00,30.5,24.5,30.09,SSW,195,1.0,4.0,78,0.00,,OVC,0.00,VWS V14.01,2013-01-16 07:30:00,
2013-01-16 02:32:00,30.3,24.9,30.12,SSE,162,1.0,4.0,80,0.00,,OVC110,0.00,VWS V14.01,2013-01-16 07:32:00,
2013-01-16 02:37:00,30.4,25.0,30.11,SE,145,1.0,4.0,80,0.00,,OVC110,0.00,VWS V14.01,2013-01-16 07:37:00,
2013-01-16 02:42:00,30.4,25.0,30.12,SSW,195,2.0,4.0,80,0.00,,OVC110,0.00,VWS V14.01,2013-01-16 07:42:00,
2013-01-16 02:48:00,30.4,25.0,30.12,SE,141,1.0,4.0,80,0.00,,OVC100,0.00,VWS V14.01,2013-01-16 07:48:00,
2013-01-16 02:53:00,30.4,25.0,30.11,South,188,1.0,4.0,80,0.00,,OVC100,0.00,VWS V14.01,2013-01-16 07:53:00,
2013-01-16 02:58:00,30.4,24.7,30.11,SSW,193,1.0,4.0,79,0.00,,OVC100,0.00,VWS V14.01,2013-01-16 07:58:00,
2013-01-16 03:00:00,30.5,24.5,30.07,SSE,168,0.0,2.0,78,0.00,,OVC,0.00,VWS V14.01,2013-01-16 08:00:00,
2013-01-16 03:03:00,30.4,24.7,30.09,SE,144,1.0,3.0,79,0.00,,OVC100,0.00,VWS V14.01,2013-01-16 08:03:00,
2013-01-16 03:08:00,30.5,24.5,30.10,SSE,162,1.0,3.0,78,0.00,,OVC100,0.00,VWS V14.01,2013-01-16 08:08:00,
2013-01-16 03:13:00,30.5,24.5,30.09,SSE,159,1.0,4.0,78,0.00,,OVC100,0.00,VWS V14.01,2013-01-16 08:13:00,
2013-01-16 03:18:00,30.5,24.5,30.09,SSE,148,3.0,4.0,78,0.00,,OVC100,0.00,VWS V14.01,2013-01-16 08:18:00,
2013-01-16 03:24:00,30.5,24.5,30.10,SSW,200,0.0,4.0,78,0.00,,OVC100,0.00,VWS V14.01,2013-01-16 08:24:00,
2013-01-16 03:29:00,30.5,24.5,30.09,South,176,0.0,4.0,78,0.00,,OVC100,0.00,VWS V14.01,2013-01-16 08:29:00,
2013-01-16 03:30:00,30.6,24.6,30.04,South,186,1.0,3.0,78,0.00,,OVC,0.00,VWS V14.01,2013-01-16 08:30:00,
2013-01-16 03:34:00,30.5,24.5,30.10,SW,218,1.0,2.0,78,0.00,,OVC100,0.00,VWS V14.01,2013-01-16 08:34:00,
2013-01-16 03:39:00,30.5,24.5,30.08,SSE,158,1.0,2.0,78,0.00,,OVC100,0.00,VWS V14.01,2013-01-16 08:39:00,
2013-01-16 03:44:00,30.5,24.5,30.09,SSW,203,1.0,2.0,78,0.00,,OVC090,0.00,VWS V14.01,2013-01-16 08:44:00,
2013-01-16 03:49:00,30.5,24.5,30.09,SW,222,0.0,2.0,78,0.00,,OVC090,0.00,VWS V14.01,2013-01-16 08:49:00,
2013-01-16 03:54:00,30.5,24.5,30.08,SSE,148,1.0,2.0,78,0.00,,OVC090,0.00,VWS V14.01,2013-01-16 08:54:00,
2013-01-16 03:59:00,30.4,24.4,30.07,ESE,115,1.0,2.0,78,0.00,,OVC090,0.00,VWS V14.01,2013-01-16 08:59:00,
2013-01-16 04:00:00,30.7,25.0,30.03,South,188,3.0,5.0,79,0.00,,OVC,0.00,VWS V14.01,2013-01-16 09:00:00,
2013-01-16 04:04:00,30.5,24.5,30.07,SSE,168,1.0,1.0,78,0.00,,OVC090,0.00,VWS V14.01,2013-01-16 09:04:00,
2013-01-16 04:10:00,30.5,24.5,30.07,South,186,1.0,2.0,78,0.00,,OVC090,0.00,VWS V14.01,2013-01-16 09:10:00,
2013-01-16 04:15:00,30.5,24.5,30.05,SSE,163,1.0,2.0,78,0.00,,OVC090,0.00,VWS V14.01,2013-01-16 09:15:00,
2013-01-16 04:20:00,30.6,24.6,30.06,South,181,1.0,3.0,78,0.00,,OVC090,0.00,VWS V14.01,2013-01-16 09:20:00,
2013-01-16 04:25:00,30.6,24.6,30.05,South,169,0.0,3.0,78,0.00,,OVC090,0.00,VWS V14.01,2013-01-16 09:25:00,
2013-01-16 04:30:00,30.6,24.6,30.05,SW,217,0.0,3.0,78,0.00,,OVC090,0.00,VWS V14.01,2013-01-16 09:30:00,
2013-01-16 04:35:00,30.6,24.6,30.05,SSW,203,1.0,1.0,78,0.00,,OVC090,0.00,VWS V14.01,2013-01-16 09:35:00,
2013-01-16 04:40:00,30.6,24.6,30.04,SSW,200,0.0,1.0,78,0.00,,OVC090,0.00,VWS V14.01,2013-01-16 09:40:00,
2013-01-16 04:46:00,30.6,24.6,30.05,SSW,208,1.0,2.0,78,0.00,,OVC070,0.00,VWS V14.01,2013-01-16 09:46:00,
2013-01-16 04:51:00,30.6,24.6,30.05,SSW,205,1.0,2.0,78,0.00,,OVC070,0.00,VWS V14.01,2013-01-16 09:51:00,
2013-01-16 04:56:00,30.6,24.9,30.05,SSW,203,1.0,2.0,79,0.00,,OVC070,0.00,VWS V14.01,2013-01-16 09:56:00,
2013-01-16 05:00:00,30.4,26.1,30.02,SSE,155,2.0,4.0,84,0.00,,OVC,0.00,VWS V14.01,2013-01-16 10:00:00,
2013-01-16 05:01:00,30.7,25.0,30.03,SW,218,3.0,5.0,79,0.00,,OVC070,0.00,VWS V14.01,2013-01-16 10:01:00,
2013-01-16 05:06:00,30.7,24.7,30.04,South,173,2.0,4.0,78,0.00,,OVC070,0.00,VWS V14.01,2013-01-16 10:06:00,
2013-01-16 05:11:00,30.8,24.8,30.03,South,176,1.0,4.0,78,0.00,,OVC070,0.00,VWS V14.01,2013-01-16 10:11:00,
2013-01-16 05:16:00,30.8,25.1,30.03,SSW,200,1.0,4.0,79,0.00,,OVC070,0.00,VWS V14.01,2013-01-16 10:16:00,
2013-01-16 05:22:00,30.8,25.4,30.04,SSW,209,3.0,6.0,80,0.00,,OVC070,0.00,VWS V14.01,2013-01-16 10:22:00,
2013-01-16 05:27:00,30.8,25.4,30.03,South,174,1.0,6.0,80,0.00,,OVC070,0.00,VWS V14.01,2013-01-16 10:27:00,
2013-01-16 05:30:00,30.2,26.5,30.02,South,174,1.0,3.0,86,0.00,,OVC,0.00,VWS V14.01,2013-01-16 10:30:00,
2013-01-16 05:32:00,30.7,25.6,30.04,SSE,168,2.0,6.0,81,0.00,,OVC070,0.00,VWS V14.01,2013-01-16 10:32:00,
2013-01-16 05:37:00,30.6,25.5,30.02,SSW,209,2.0,3.0,81,0.00,,OVC070,0.00,VWS V14.01,2013-01-16 10:37:00,
2013-01-16 05:42:00,30.6,25.8,30.03,SSW,203,0.0,3.0,82,0.00,,OVC070,0.00,VWS V14.01,2013-01-16 10:42:00,
2013-01-16 05:47:00,30.6,26.1,30.02,SSE,165,2.0,3.0,83,0.00,,,0.00,VWS V14.01,2013-01-16 10:47:00,
2013-01-16 05:53:00,30.5,26.0,30.02,South,180,2.0,3.0,83,0.00,,,0.00,VWS V14.01,2013-01-16 10:53:00,
2013-01-16 05:58:00,30.4,25.9,30.02,SSW,208,1.0,4.0,83,0.00,,,0.00,VWS V14.01,2013-01-16 10:58:00,
2013-01-16 06:00:00,30.2,27.1,30.00,SSE,162,1.0,4.0,88,0.00,,OVC,0.00,VWS V14.01,2013-01-16 11:00:00,
2013-01-16 06:03:00,30.4,26.1,30.02,SSE,160,1.0,2.0,84,0.00,,,0.00,VWS V14.01,2013-01-16 11:03:00,
2013-01-16 06:08:00,30.3,26.1,30.02,South,189,0.0,2.0,84,0.00,,,0.00,VWS V14.01,2013-01-16 11:08:00,
2013-01-16 06:13:00,30.3,26.3,30.02,SSE,162,0.0,2.0,85,0.00,,,0.00,VWS V14.01,2013-01-16 11:13:00,
2013-01-16 06:18:00,30.2,26.2,30.03,SSW,196,0.0,2.0,85,0.00,,,0.00,VWS V14.01,2013-01-16 11:18:00,
2013-01-16 06:23:00,30.2,26.5,30.03,SSW,193,1.0,2.0,86,0.00,,,0.00,VWS V14.01,2013-01-16 11:23:00,
2013-01-16 06:28:00,30.2,26.5,30.02,SSW,193,1.0,2.0,86,0.00,,,0.00,VWS V14.01,2013-01-16 11:28:00,
2013-01-16 06:30:00,30.2,27.1,29.99,SSE,149,1.0,3.0,88,0.00,,OVC,0.00,VWS V14.01,2013-01-16 11:30:00,
2013-01-16 06:33:00,30.2,26.5,30.02,SSE,155,1.0,3.0,86,0.00,,,0.00,VWS V14.01,2013-01-16 11:33:00,
2013-01-16 06:39:00,30.2,26.8,30.02,SSE,167,2.0,3.0,87,0.00,,,0.00,VWS V14.01,2013-01-16 11:39:00,
2013-01-16 06:44:00,30.2,26.8,30.01,SE,128,2.0,3.0,87,0.00,,,0.00,VWS V14.01,2013-01-16 11:44:00,
2013-01-16 06:49:00,30.1,26.7,30.00,SSW,208,2.0,4.0,87,0.00,,,0.00,VWS V14.01,2013-01-16 11:49:00,
2013-01-16 06:54:00,30.1,26.7,30.01,South,191,1.0,4.0,87,0.00,,,0.00,VWS V14.01,2013-01-16 11:54:00,
2013-01-16 07:00:00,30.1,27.0,30.01,SSE,153,2.0,4.0,88,0.00,,,0.00,VWS V14.01,2013-01-16 12:00:00,
2013-01-16 07:05:00,30.2,27.1,30.01,SSE,161,1.0,1.0,88,0.00,,OVC060,0.00,VWS V14.01,2013-01-16 12:05:00,
2013-01-16 07:10:00,30.2,27.1,30.01,SSE,154,1.0,2.0,88,0.00,,OVC060,0.00,VWS V14.01,2013-01-16 12:10:00,
2013-01-16 07:15:00,30.2,27.1,30.01,SE,125,1.0,2.0,88,0.00,,OVC060,0.00,VWS V14.01,2013-01-16 12:15:00,
2013-01-16 07:20:00,30.2,27.1,30.00,SSE,163,2.0,3.0,88,0.00,,OVC060,0.00,VWS V14.01,2013-01-16 12:20:00,
2013-01-16 07:25:00,30.2,27.1,29.99,SW,226,0.0,3.0,88,0.00,,OVC060,0.00,VWS V14.01,2013-01-16 12:25:00,
2013-01-16 07:30:00,30.2,27.1,30.00,South,169,2.0,3.0,88,0.00,,OVC060,0.00,VWS V14.01,2013-01-16 12:30:00,
2013-01-16 07:35:00,30.3,27.2,29.99,SSW,210,1.0,1.0,88,0.00,,OVC060,0.00,VWS V14.01,2013-01-16 12:35:00,
2013-01-16 07:41:00,30.3,27.5,29.99,SSW,197,1.0,2.0,89,0.00,,OVC060,0.00,VWS V14.01,2013-01-16 12:41:00,
2013-01-16 07:46:00,30.3,27.5,30.00,SSE,152,0.0,2.0,89,0.00,,OVC060,0.00,VWS V14.01,2013-01-16 12:46:00,
2013-01-16 07:51:00,30.3,27.5,29.99,SE,138,0.0,2.0,89,0.00,,OVC060,0.00,VWS V14.01,2013-01-16 12:51:00,
2013-01-16 07:56:00,30.3,27.5,30.00,SSE,167,0.0,2.0,89,0.00,,OVC060,0.00,VWS V14.01,2013-01-16 12:56:00,
2013-01-16 08:00:00,30.5,27.9,29.99,SE,143,0.0,0.0,90,0.00,,OVC,0.00,VWS V14.01,2013-01-16 13:00:00,
2013-01-16 08:01:00,30.3,27.5,29.99,SSE,161,0.0,2.0,89,0.00,,OVC060,0.00,VWS V14.01,2013-01-16 13:01:00,
2013-01-16 08:06:00,30.3,27.5,30.00,SSE,150,0.0,0.0,89,0.00,,OVC060,0.00,VWS V14.01,2013-01-16 13:06:00,
2013-01-16 08:11:00,30.4,27.5,29.99,SSE,149,0.0,0.0,89,0.00,,OVC060,0.00,VWS V14.01,2013-01-16 13:11:00,
2013-01-16 08:16:00,30.4,27.5,29.99,SSE,149,0.0,0.0,89,0.00,,OVC060,0.00,VWS V14.01,2013-01-16 13:16:00,
2013-01-16 08:22:00,30.5,27.6,29.99,SSE,149,0.0,0.0,89,0.00,,OVC060,0.00,VWS V14.01,2013-01-16 13:22:00,
2013-01-16 08:27:00,30.5,27.6,30.00,SSE,149,0.0,0.0,89,0.00,,OVC060,0.00,VWS V14.01,2013-01-16 13:27:00,
2013-01-16 08:30:00,30.4,28.6,29.97,SSW,208,0.0,2.0,93,0.00,,OVC,0.00,VWS V14.01,2013-01-16 13:30:00,
2013-01-16 08:32:00,30.5,27.6,30.00,SSE,149,0.0,0.0,89,0.00,,OVC060,0.00,VWS V14.01,2013-01-16 13:32:00,
2013-01-16 08:37:00,30.5,27.6,30.00,SE,134,0.0,0.0,89,0.00,,OVC060,0.00,VWS V14.01,2013-01-16 13:37:00,
2013-01-16 08:42:00,30.5,27.6,30.00,SE,134,0.0,0.0,89,0.00,,OVC060,0.00,VWS V14.01,2013-01-16 13:42:00,
2013-01-16 08:47:00,30.5,27.9,30.00,SE,134,0.0,0.0,90,0.00,,OVC047,0.00,VWS V14.01,2013-01-16 13:47:00,
2013-01-16 08:52:00,30.5,27.9,30.00,SE,134,0.0,0.0,90,0.00,,OVC047,0.00,VWS V14.01,2013-01-16 13:52:00,
2013-01-16 08:57:00,30.5,27.9,29.99,SE,128,0.0,0.0,90,0.00,,OVC047,0.00,VWS V14.01,2013-01-16 13:57:00,
2013-01-16 09:00:00,30.6,28.8,29.94,South,183,2.0,2.0,93,0.00,,OVC,0.00,VWS V14.01,2013-01-16 14:00:00,
2013-01-16 09:02:00,30.5,27.9,29.99,SSE,153,0.0,0.0,90,0.00,,OVC047,0.00,VWS V14.01,2013-01-16 14:02:00,
2013-01-16 09:08:00,30.5,28.2,29.98,SE,138,0.0,0.0,91,0.00,,OVC047,0.00,VWS V14.01,2013-01-16 14:08:00,
2013-01-16 09:13:00,30.4,28.1,29.98,SSE,167,0.0,0.0,91,0.00,,OVC047,0.00,VWS V14.01,2013-01-16 14:13:00,
2013-01-16 09:18:00,30.4,28.1,29.98,SSE,166,0.0,1.0,91,0.00,,OVC047,0.00,VWS V14.01,2013-01-16 14:18:00,
2013-01-16 09:23:00,30.4,28.4,29.97,SSE,166,0.0,1.0,92,0.00,,OVC047,0.00,VWS V14.01,2013-01-16 14:23:00,
2013-01-16 09:28:00,30.4,28.4,29.97,SSW,205,0.0,2.0,92,0.00,,OVC047,0.00,VWS V14.01,2013-01-16 14:28:00,
2013-01-16 09:30:00,30.9,29.1,29.92,SSE,149,1.0,4.0,93,0.00,,OVC,0.00,VWS V14.01,2013-01-16 14:30:00,
2013-01-16 09:33:00,30.4,28.6,29.97,SSW,208,0.0,0.0,93,0.00,,OVC047,0.00,VWS V14.01,2013-01-16 14:33:00,
2013-01-16 09:38:00,30.5,28.7,29.96,SSW,210,0.0,0.0,93,0.00,,OVC047,0.00,VWS V14.01,2013-01-16 14:38:00,
2013-01-16 09:43:00,30.5,28.7,29.96,SSW,211,0.0,0.0,93,0.00,,OVC047,0.00,VWS V14.01,2013-01-16 14:43:00,
2013-01-16 09:49:00,30.5,28.7,29.96,SSW,200,0.0,0.0,93,0.00,,,0.00,VWS V14.01,2013-01-16 14:49:00,
2013-01-16 09:54:00,30.5,28.7,29.96,SSW,200,0.0,0.0,93,0.00,,,0.00,VWS V14.01,2013-01-16 14:54:00,
2013-01-16 09:59:00,30.6,28.8,29.95,SSW,200,0.0,0.0,93,0.00,,,0.00,VWS V14.01,2013-01-16 14:59:00,
2013-01-16 10:00:00,31.4,29.1,29.90,South,176,3.0,4.0,91,0.00,,OVC,0.00,VWS V14.01,2013-01-16 15:00:00,
2013-01-16 10:04:00,30.6,28.8,29.94,SSE,162,1.0,2.0,93,0.00,,,0.00,VWS V14.01,2013-01-16 15:04:00,
2013-01-16 10:09:00,30.6,28.8,29.94,SSW,200,1.0,2.0,93,0.00,,,0.00,VWS V14.01,2013-01-16 15:09:00,
2013-01-16 10:14:00,30.7,28.9,29.94,SSW,205,2.0,2.0,93,0.00,,,0.00,VWS V14.01,2013-01-16 15:14:00,
2013-01-16 10:19:00,30.7,28.9,29.93,SSE,158,1.0,3.0,93,0.00,,,0.00,VWS V14.01,2013-01-16 15:19:00,
2013-01-16 10:24:00,30.8,29.0,29.93,SSE,153,2.0,3.0,93,0.00,,,0.00,VWS V14.01,2013-01-16 15:24:00,
2013-01-16 10:29:00,30.8,29.0,29.92,SSW,203,2.0,3.0,93,0.00,,,0.00,VWS V14.01,2013-01-16 15:29:00,
2013-01-16 10:30:00,31.5,29.2,29.86,South,182,4.0,5.0,91,0.00,,OVC,0.00,VWS V14.01,2013-01-16 15:30:00,
2013-01-16 10:34:00,30.9,29.1,29.92,South,173,1.0,3.0,93,0.00,,,0.00,VWS V14.01,2013-01-16 15:34:00,
2013-01-16 10:40:00,31.0,29.2,29.91,SSE,161,1.0,4.0,93,0.00,,,0.00,VWS V14.01,2013-01-16 15:40:00,
2013-01-16 10:45:00,31.1,29.0,29.91,South,181,1.0,4.0,92,0.00,,,0.00,VWS V14.01,2013-01-16 15:45:00,
2013-01-16 10:50:00,31.2,29.1,29.91,South,191,0.0,4.0,92,0.00,,,0.00,VWS V14.01,2013-01-16 15:50:00,
2013-01-16 10:55:00,31.3,29.2,29.91,SW,236,2.0,4.0,92,0.00,,,0.00,VWS V14.01,2013-01-16 15:55:00,
2013-01-16 11:00:00,31.3,29.0,29.91,SSW,194,1.0,4.0,91,0.00,,,0.00,VWS V14.01,2013-01-16 16:00:00,
2013-01-16 11:05:00,31.4,29.1,29.90,SSW,197,1.0,4.0,91,0.00,,,0.00,VWS V14.01,2013-01-16 16:05:00,
2013-01-16 11:10:00,31.4,29.1,29.89,SSW,193,1.0,5.0,91,0.00,,,0.00,VWS V14.01,2013-01-16 16:10:00,
2013-01-16 11:15:00,31.5,29.2,29.88,SSW,204,1.0,5.0,91,0.00,,,0.00,VWS V14.01,2013-01-16 16:15:00,
2013-01-16 11:20:00,31.5,29.2,29.88,SSW,201,1.0,5.0,91,0.00,,,0.00,VWS V14.01,2013-01-16 16:20:00,
2013-01-16 11:26:00,31.5,29.2,29.89,SSW,205,1.0,5.0,91,0.00,,,0.00,VWS V14.01,2013-01-16 16:26:00,
2013-01-16 11:30:00,32.4,29.8,29.83,SSW,205,0.0,4.0,90,0.00,,OVC,0.00,VWS V14.01,2013-01-16 16:30:00,
2013-01-16 11:31:00,31.5,29.2,29.86,South,172,4.0,5.0,91,0.00,,,0.00,VWS V14.01,2013-01-16 16:31:00,
2013-01-16 11:36:00,31.5,29.2,29.85,South,169,1.0,4.0,91,0.00,,,0.00,VWS V14.01,2013-01-16 16:36:00,
2013-01-16 11:41:00,31.6,29.3,29.85,SSW,198,2.0,4.0,91,0.00,,,0.00,VWS V14.01,2013-01-16 16:41:00,
2013-01-16 11:46:00,31.7,29.4,29.86,SSW,207,2.0,4.0,91,0.00,,OVC060,0.00,VWS V14.01,2013-01-16 16:46:00,
2013-01-16 11:51:00,31.7,29.4,29.85,SSW,193,2.0,4.0,91,0.00,,OVC060,0.00,VWS V14.01,2013-01-16 16:51:00,
2013-01-16 11:56:00,31.7,29.4,29.85,SSW,207,2.0,4.0,91,0.00,,OVC060,0.00,VWS V14.01,2013-01-16 16:56:00,
2013-01-16 12:00:00,33.3,29.6,29.82,SW,233,3.0,4.0,86,0.00,,OVC,0.00,VWS V14.01,2013-01-16 17:00:00,
2013-01-16 12:01:00,31.8,29.5,29.85,SSW,211,2.0,4.0,91,0.00,,OVC060,0.00,VWS V14.01,2013-01-16 17:01:00,
2013-01-16 12:06:00,31.8,29.2,29.84,SSW,205,1.0,3.0,90,0.00,,OVC060,0.00,VWS V14.01,2013-01-16 17:06:00,
2013-01-16 12:12:00,31.9,29.3,29.85,SSW,205,1.0,4.0,90,0.00,,OVC060,0.00,VWS V14.01,2013-01-16 17:12:00,
2013-01-16 12:17:00,32.1,29.5,29.85,SSW,205,2.0,4.0,90,0.00,,OVC060,0.00,VWS V14.01,2013-01-16 17:17:00,
2013-01-16 12:22:00,32.1,29.5,29.84,SW,230,2.0,4.0,90,0.00,,OVC060,0.00,VWS V14.01,2013-01-16 17:22:00,
2013-01-16 12:27:00,32.3,29.7,29.83,SSW,211,1.0,4.0,90,0.00,,OVC060,0.00,VWS V14.01,2013-01-16 17:27:00,
2013-01-16 12:30:00,34.0,30.0,29.80,WSW,257,3.0,6.0,85,0.00,,OVC,0.00,VWS V14.01,2013-01-16 17:30:00,
2013-01-16 12:32:00,32.4,29.8,29.83,SSW,205,0.0,4.0,90,0.00,,OVC060,0.00,VWS V14.01,2013-01-16 17:32:00,
2013-01-16 12:37:00,32.6,29.7,29.83,SW,215,2.0,2.0,89,0.00,,OVC060,0.00,VWS V14.01,2013-01-16 17:37:00,
2013-01-16 12:42:00,32.7,29.8,29.83,SSW,203,1.0,2.0,89,0.00,,OVC060,0.00,VWS V14.01,2013-01-16 17:42:00,
2013-01-16 12:47:00,32.9,29.7,29.82,SSW,205,1.0,2.0,88,0.00,,OVC065,0.00,VWS V14.01,2013-01-16 17:47:00,
2013-01-16 12:53:00,33.1,29.9,29.82,SW,231,3.0,3.0,88,0.00,,OVC065,0.00,VWS V14.01,2013-01-16 17:53:00,
2013-01-16 12:58:00,33.2,29.5,29.82,SW,236,3.0,4.0,86,0.00,,OVC065,0.00,VWS V14.01,2013-01-16 17:58:00,
2013-01-16 13:00:00,34.8,30.5,29.80,West,265,2.0,6.0,84,0.00,,OVC,0.00,VWS V14.01,2013-01-16 18:00:00,
2013-01-16 13:03:00,33.4,29.7,29.82,SW,233,3.0,3.0,86,0.00,,OVC065,0.00,VWS V14.01,2013-01-16 18:03:00,
2013-01-16 13:08:00,33.5,29.5,29.81,WSW,250,3.0,4.0,85,0.00,,OVC065,0.00,VWS V14.01,2013-01-16 18:08:00,
2013-01-16 13:13:00,33.6,29.6,29.82,WSW,239,4.0,6.0,85,0.00,,OVC065,0.00,VWS V14.01,2013-01-16 18:13:00,
2013-01-16 13:18:00,33.7,29.7,29.82,WSW,240,4.0,6.0,85,0.00,,OVC065,0.00,VWS V14.01,2013-01-16 18:18:00,
2013-01-16 13:23:00,33.8,29.8,29.81,SW,225,4.0,6.0,85,0.00,,OVC065,0.00,VWS V14.01,2013-01-16 18:23:00,
2013-01-16 13:28:00,33.9,29.6,29.80,WSW,249,5.0,6.0,84,0.00,,OVC065,0.00,VWS V14.01,2013-01-16 18:28:00,
2013-01-16 13:30:00,35.5,31.1,29.80,WSW,248,3.0,5.0,84,0.00,,OVC,0.00,VWS V14.01,2013-01-16 18:30:00,
2013-01-16 13:33:00,34.0,29.7,29.80,WSW,245,2.0,3.0,84,0.00,,OVC065,0.00,VWS V14.01,2013-01-16 18:33:00,
2013-01-16 13:39:00,34.1,29.8,29.80,SW,231,3.0,4.0,84,0.00,,OVC065,0.00,VWS V14.01,2013-01-16 18:39:00,
2013-01-16 13:44:00,34.3,30.0,29.80,SW,228,3.0,4.0,84,0.00,,OVC065,0.00,VWS V14.01,2013-01-16 18:44:00,
2013-01-16 13:49:00,34.5,30.2,29.81,WSW,249,2.0,4.0,84,0.00,,OVC075,0.00,VWS V14.01,2013-01-16 18:49:00,
2013-01-16 13:54:00,34.7,30.4,29.81,WSW,239,5.0,5.0,84,0.00,,OVC075,0.00,VWS V14.01,2013-01-16 18:54:00,
2013-01-16 13:59:00,34.8,30.2,29.80,WSW,246,2.0,6.0,83,0.00,,OVC075,0.00,VWS V14.01,2013-01-16 18:59:00,
2013-01-16 14:00:00,36.0,31.4,29.80,WSW,245,2.0,6.0,83,0.00,,OVC,0.00,VWS V14.01,2013-01-16 19:00:00,
2013-01-16 14:04:00,34.9,30.6,29.81,WSW,256,3.0,4.0,84,0.00,,OVC075,0.00,VWS V14.01,2013-01-16 19:04:00,
2013-01-16 14:09:00,34.9,30.6,29.81,WSW,251,3.0,5.0,84,0.00,,OVC075,0.00,VWS V14.01,2013-01-16 19:09:00,
2013-01-16 14:14:00,35.0,30.7,29.80,WSW,245,3.0,5.0,84,0.00,,OVC075,0.00,VWS V14.01,2013-01-16 19:14:00,
2013-01-16 14:19:00,35.1,30.5,29.80,SW,236,3.0,5.0,83,0.00,,OVC075,0.00,VWS V14.01,2013-01-16 19:19:00,
2013-01-16 14:25:00,35.3,30.7,29.80,SW,236,3.0,5.0,83,0.00,,OVC075,0.00,VWS V14.01,2013-01-16 19:25:00,
2013-01-16 14:30:00,35.4,30.8,29.80,WSW,244,2.0,5.0,83,0.00,,OVC075,0.00,VWS V14.01,2013-01-16 19:30:00,
2013-01-16 14:35:00,35.5,30.9,29.80,West,267,2.0,3.0,83,0.00,,OVC075,0.00,VWS V14.01,2013-01-16 19:35:00,
2013-01-16 14:40:00,35.6,31.0,29.80,SW,236,5.0,5.0,83,0.00,,OVC075,0.00,VWS V14.01,2013-01-16 19:40:00,
2013-01-16 14:45:00,35.7,31.0,29.80,WSW,253,2.0,6.0,83,0.00,,OVC090,0.00,VWS V14.01,2013-01-16 19:45:00,
2013-01-16 14:50:00,35.8,31.1,29.79,SW,233,4.0,6.0,83,0.00,,OVC090,0.00,VWS V14.01,2013-01-16 19:50:00,
2013-01-16 14:55:00,35.9,31.2,29.80,WSW,250,2.0,6.0,83,0.00,,OVC090,0.00,VWS V14.01,2013-01-16 19:55:00,
2013-01-16 15:00:00,36.0,31.4,29.80,WSW,252,2.0,6.0,83,0.00,,OVC090,0.00,VWS V14.01,2013-01-16 20:00:00,
2013-01-16 15:06:00,36.1,31.5,29.79,WSW,244,1.0,2.0,83,0.00,,OVC090,0.00,VWS V14.01,2013-01-16 20:06:00,
2013-01-16 15:11:00,36.2,31.2,29.80,SW,232,2.0,2.0,82,0.00,,OVC090,0.00,VWS V14.01,2013-01-16 20:11:00,
2013-01-16 15:16:00,36.4,31.4,29.80,SW,228,4.0,4.0,82,0.00,,OVC090,0.00,VWS V14.01,2013-01-16 20:16:00,
2013-01-16 15:21:00,36.5,31.5,29.79,West,267,3.0,5.0,82,0.00,,OVC090,0.00,VWS V14.01,2013-01-16 20:21:00,
2013-01-16 15:26:00,36.6,31.3,29.79,WSW,245,2.0,5.0,81,0.00,,OVC090,0.00,VWS V14.01,2013-01-16 20:26:00,
2013-01-16 15:30:00,37.1,31.2,29.80,West,273,1.0,4.0,79,0.00,,OVC,0.00,VWS V14.01,2013-01-16 20:30:00,
2013-01-16 15:31:00,36.7,31.4,29.79,SSW,209,1.0,5.0,81,0.00,,OVC090,0.00,VWS V14.01,2013-01-16 20:31:00,
2013-01-16 15:36:00,36.8,31.5,29.79,WSW,240,2.0,2.0,81,0.00,,OVC090,0.00,VWS V14.01,2013-01-16 20:36:00,
2013-01-16 15:41:00,36.8,31.2,29.78,SW,232,1.0,3.0,80,0.00,,OVC090,0.00,VWS V14.01,2013-01-16 20:41:00,
2013-01-16 15:46:00,36.8,31.2,29.78,WSW,241,3.0,3.0,80,0.00,,OVC090,0.00,VWS V14.01,2013-01-16 20:46:00,
2013-01-16 15:52:00,36.7,31.4,29.79,WSW,248,2.0,4.0,81,0.00,,OVC090,0.00,VWS V14.01,2013-01-16 20:52:00,
2013-01-16 15:57:00,36.8,31.5,29.79,WSW,241,3.0,4.0,81,0.00,,OVC090,0.00,VWS V14.01,2013-01-16 20:57:00,
2013-01-16 16:00:00,36.2,29.7,29.80,West,273,2.0,5.0,77,0.00,,OVC,0.00,VWS V14.01,2013-01-16 21:00:00,
2013-01-16 16:02:00,37.1,31.5,29.79,WSW,245,2.0,4.0,80,0.00,,BKN110,0.00,VWS V14.01,2013-01-16 21:02:00,
2013-01-16 16:07:00,37.3,31.7,29.79,WSW,245,2.0,3.0,80,0.00,,BKN110,0.00,VWS V14.01,2013-01-16 21:07:00,
2013-01-16 16:12:00,37.3,31.7,29.79,WSW,257,2.0,3.0,80,0.00,,BKN110,0.00,VWS V14.01,2013-01-16 21:12:00,
2013-01-16 16:17:00,37.2,31.3,29.79,West,260,2.0,3.0,79,0.00,,BKN110,0.00,VWS V14.01,2013-01-16 21:17:00,
2013-01-16 16:22:00,37.2,31.3,29.79,WSW,248,2.0,4.0,79,0.00,,BKN110,0.00,VWS V14.01,2013-01-16 21:22:00,
2013-01-16 16:27:00,37.1,31.2,29.80,West,262,2.0,4.0,79,0.00,,BKN110,0.00,VWS V14.01,2013-01-16 21:27:00,
2013-01-16 16:30:00,34.8,29.3,29.80,West,270,1.0,3.0,80,0.00,,OVC,0.00,VWS V14.01,2013-01-16 21:30:00,
2013-01-16 16:32:00,37.1,31.2,29.80,West,273,1.0,4.0,79,0.00,,BKN110,0.00,VWS V14.01,2013-01-16 21:32:00,
2013-01-16 16:37:00,36.8,31.2,29.80,West,267,0.0,1.0,80,0.00,,BKN110,0.00,VWS V14.01,2013-01-16 21:37:00,
2013-01-16 16:43:00,36.4,30.8,29.80,West,268,0.0,1.0,80,0.00,,BKN110,0.00,VWS V14.01,2013-01-16 21:43:00,
2013-01-16 16:48:00,36.0,30.4,29.80,West,271,3.0,3.0,80,0.00,,CLR,0.00,VWS V14.01,2013-01-16 21:48:00,
2013-01-16 16:53:00,36.0,29.8,29.80,West,271,2.0,3.0,78,0.00,,CLR,0.00,VWS V14.01,2013-01-16 21:53:00,
2013-01-16 16:58:00,36.2,29.7,29.81,West,266,3.0,5.0,77,0.00,,CLR,0.00,VWS V14.01,2013-01-16 21:58:00,
2013-01-16 17:00:00,31.6,27.3,29.80,SE,134,0.0,1.0,84,0.00,,OVC,0.00,VWS V14.01,2013-01-16 22:00:00,
2013-01-16 17:03:00,36.2,29.7,29.80,West,264,1.0,2.0,77,0.00,,CLR,0.00,VWS V14.01,2013-01-16 22:03:00,
2013-01-16 17:08:00,36.0,29.5,29.80,West,265,2.0,3.0,77,0.00,,CLR,0.00,VWS V14.01,2013-01-16 22:08:00,
2013-01-16 17:13:00,36.0,29.5,29.80,West,260,1.0,3.0,77,0.00,,CLR,0.00,VWS V14.01,2013-01-16 22:13:00,
2013-01-16 17:18:00,35.7,29.5,29.80,West,273,1.0,3.0,78,0.00,,CLR,0.00,VWS V14.01,2013-01-16 22:18:00,
2013-01-16 17:24:00,35.6,29.4,29.80,West,273,0.0,3.0,78,0.00,,CLR,0.00,VWS V14.01,2013-01-16 22:24:00,
2013-01-16 17:29:00,34.9,29.1,29.80,WSW,258,1.0,3.0,79,0.00,,CLR,0.00,VWS V14.01,2013-01-16 22:29:00,
2013-01-16 17:30:00,30.5,27.6,29.82,WSW,240,0.0,1.0,89,0.00,,OVC,0.00,VWS V14.01,2013-01-16 22:30:00,
2013-01-16 17:34:00,34.8,29.3,29.81,West,261,1.0,1.0,80,0.00,,CLR,0.00,VWS V14.01,2013-01-16 22:34:00,
2013-01-16 17:39:00,34.6,28.8,29.81,SE,134,1.0,1.0,79,0.00,,CLR,0.00,VWS V14.01,2013-01-16 22:39:00,
2013-01-16 17:44:00,33.8,28.3,29.81,SE,134,0.0,1.0,80,0.00,,CLR,0.00,VWS V14.01,2013-01-16 22:44:00,
2013-01-16 17:49:00,33.1,27.9,29.81,SE,134,0.0,1.0,81,0.00,,CLR,0.00,VWS V14.01,2013-01-16 22:49:00,
2013-01-16 17:54:00,32.4,27.5,29.81,SE,134,0.0,1.0,82,0.00,,CLR,0.00,VWS V14.01,2013-01-16 22:54:00,
2013-01-16 18:00:00,31.9,27.6,29.80,SE,134,0.0,1.0,84,0.00,,CLR,0.00,VWS V14.01,2013-01-16 23:00:00,
2013-01-16 18:05:00,31.4,27.1,29.80,SE,134,0.0,0.0,84,0.00,,CLR,0.00,VWS V14.01,2013-01-16 23:05:00,
2013-01-16 18:10:00,31.0,27.3,29.81,SE,134,0.0,1.0,86,0.00,,CLR,0.00,VWS V14.01,2013-01-16 23:10:00,
2013-01-16 18:15:00,30.8,27.4,29.81,SE,134,0.0,1.0,87,0.00,,CLR,0.00,VWS V14.01,2013-01-16 23:15:00,
2013-01-16 18:20:00,30.5,27.4,29.81,SE,134,0.0,1.0,88,0.00,,CLR,0.00,VWS V14.01,2013-01-16 23:20:00,
2013-01-16 18:25:00,30.6,27.5,29.82,SE,134,0.0,1.0,88,0.00,,CLR,0.00,VWS V14.01,2013-01-16 23:25:00,
2013-01-16 18:30:00,34.1,29.2,29.83,West,263,2.0,4.0,82,0.00,,OVC,0.00,VWS V14.01,2013-01-16 23:30:00,
2013-01-16 18:31:00,30.5,27.4,29.82,SE,134,0.0,1.0,88,0.00,,CLR,0.00,VWS V14.01,2013-01-16 23:31:00,
2013-01-16 18:36:00,31.1,28.5,29.82,West,262,0.0,0.0,90,0.00,,CLR,0.00,VWS V14.01,2013-01-16 23:36:00,
2013-01-16 18:41:00,32.2,29.0,29.83,WSW,250,2.0,3.0,88,0.00,,CLR,0.00,VWS V14.01,2013-01-16 23:41:00,
2013-01-16 18:46:00,32.9,29.2,29.83,West,278,2.0,3.0,86,0.00,,CLR,0.00,VWS V14.01,2013-01-16 23:46:00,
2013-01-16 18:51:00,33.1,29.1,29.83,WSW,249,2.0,3.0,85,0.00,,CLR,0.00,VWS V14.01,2013-01-16 23:51:00,
2013-01-16 18:56:00,33.2,29.2,29.82,West,265,2.0,3.0,85,0.00,,CLR,0.00,VWS V14.01,2013-01-16 23:56:00,
2013-01-16 19:00:00,33.9,28.4,29.83,West,275,2.0,4.0,80,0.00,,OVC,0.00,VWS V14.01,2013-01-17 00:00:00,
2013-01-16 19:01:00,33.3,29.3,29.83,West,264,2.0,3.0,85,0.00,,CLR,0.00,VWS V14.01,2013-01-17 00:01:00,
2013-01-16 19:06:00,33.5,29.2,29.83,WSW,257,2.0,4.0,84,0.00,,CLR,0.00,VWS V14.01,2013-01-17 00:06:00,
2013-01-16 19:11:00,33.6,29.0,29.82,West,267,2.0,4.0,83,0.00,,CLR,0.00,VWS V14.01,2013-01-17 00:11:00,
2013-01-16 19:17:00,33.7,28.8,29.82,West,263,3.0,4.0,82,0.00,,CLR,0.00,VWS V14.01,2013-01-17 00:17:00,
2013-01-16 19:22:00,33.7,28.8,29.83,WSW,257,2.0,4.0,82,0.00,,CLR,0.00,VWS V14.01,2013-01-17 00:22:00,
2013-01-16 19:27:00,33.8,29.2,29.83,West,270,3.0,4.0,83,0.00,,CLR,0.00,VWS V14.01,2013-01-17 00:27:00,
2013-01-16 19:30:00,33.9,27.5,29.83,WSW,253,3.0,5.0,77,0.00,,OVC,0.00,VWS V14.01,2013-01-17 00:30:00,
2013-01-16 19:32:00,34.1,29.2,29.83,West,262,3.0,4.0,82,0.00,,CLR,0.00,VWS V14.01,2013-01-17 00:32:00,
2013-01-16 19:37:00,34.0,29.1,29.83,West,262,2.0,4.0,82,0.00,,CLR,0.00,VWS V14.01,2013-01-17 00:37:00,
2013-01-16 19:42:00,34.0,28.8,29.83,West,266,2.0,4.0,81,0.00,,CLR,0.00,VWS V14.01,2013-01-17 00:42:00,
2013-01-16 19:47:00,34.1,28.6,29.83,WSW,252,3.0,4.0,80,0.00,,CLR,0.00,VWS V14.01,2013-01-17 00:47:00,
2013-01-16 19:53:00,34.0,28.5,29.83,West,260,2.0,4.0,80,0.00,,CLR,0.00,VWS V14.01,2013-01-17 00:53:00,
2013-01-16 19:58:00,33.9,28.4,29.83,West,260,2.0,4.0,80,0.00,,CLR,0.00,VWS V14.01,2013-01-17 00:58:00,
2013-01-16 20:00:00,33.6,26.2,29.84,West,260,2.0,5.0,74,0.00,,OVC,0.00,VWS V14.01,2013-01-17 01:00:00,
2013-01-16 20:03:00,33.9,28.4,29.83,WSW,257,3.0,3.0,80,0.00,,CLR,0.00,VWS V14.01,2013-01-17 01:03:00,
2013-01-16 20:08:00,34.0,28.5,29.83,WSW,249,3.0,4.0,80,0.00,,CLR,0.00,VWS V14.01,2013-01-17 01:08:00,
2013-01-16 20:13:00,34.1,28.3,29.83,West,269,2.0,5.0,79,0.00,,CLR,0.00,VWS V14.01,2013-01-17 01:13:00,
2013-01-16 20:19:00,34.1,28.0,29.83,West,266,2.0,5.0,78,0.00,,CLR,0.00,VWS V14.01,2013-01-17 01:19:00,
2013-01-16 20:24:00,34.1,27.7,29.83,West,267,2.0,5.0,77,0.00,,CLR,0.00,VWS V14.01,2013-01-17 01:24:00,
2013-01-16 20:29:00,33.9,27.5,29.83,West,269,2.0,5.0,77,0.00,,CLR,0.00,VWS V14.01,2013-01-17 01:29:00,
2013-01-16 20:30:00,33.9,25.5,29.84,West,260,4.0,8.0,71,0.00,,OVC,0.00,VWS V14.01,2013-01-17 01:30:00,
2013-01-16 20:34:00,33.8,27.4,29.83,West,273,3.0,3.0,77,0.00,,CLR,0.00,VWS V14.01,2013-01-17 01:34:00,
2013-01-16 20:39:00,33.7,27.0,29.83,West,260,2.0,4.0,76,0.00,,CLR,0.00,VWS V14.01,2013-01-17 01:39:00,
2013-01-16 20:44:00,33.9,26.8,29.83,West,269,1.0,5.0,75,0.00,,CLR,0.00,VWS V14.01,2013-01-17 01:44:00,
2013-01-16 20:49:00,33.9,26.5,29.83,WSW,255,1.0,5.0,74,0.00,,CLR,0.00,VWS V14.01,2013-01-17 01:49:00,
2013-01-16 20:54:00,33.8,26.4,29.83,WSW,252,2.0,5.0,74,0.00,,CLR,0.00,VWS V14.01,2013-01-17 01:54:00,
2013-01-16 21:00:00,33.7,26.3,29.84,West,260,2.0,5.0,74,0.00,,CLR,0.00,VWS V14.01,2013-01-17 02:00:00,
2013-01-16 21:05:00,33.7,26.3,29.84,West,268,3.0,3.0,74,0.00,,CLR,0.00,VWS V14.01,2013-01-17 02:05:00,
2013-01-16 21:10:00,33.8,26.1,29.84,WSW,251,2.0,4.0,73,0.00,,CLR,0.00,VWS V14.01,2013-01-17 02:10:00,
2013-01-16 21:15:00,33.7,26.0,29.84,West,271,3.0,4.0,73,0.00,,CLR,0.00,VWS V14.01,2013-01-17 02:15:00,
2013-01-16 21:20:00,33.9,25.5,29.84,WSW,249,3.0,5.0,71,0.00,,CLR,0.00,VWS V14.01,2013-01-17 02:20:00,
2013-01-16 21:25:00,34.1,25.4,29.84,WSW,255,4.0,8.0,70,0.00,,CLR,0.00,VWS V14.01,2013-01-17 02:25:00,
2013-01-16 21:30:00,35.0,24.8,29.84,West,266,3.0,9.0,66,0.00,,OVC,0.00,VWS V14.01,2013-01-17 02:30:00,
2013-01-16 21:31:00,34.0,25.6,29.84,West,260,4.0,8.0,71,0.00,,CLR,0.00,VWS V14.01,2013-01-17 02:31:00,
2013-01-16 21:36:00,33.8,25.7,29.84,WSW,250,3.0,5.0,72,0.00,,CLR,0.00,VWS V14.01,2013-01-17 02:36:00,
2013-01-16 21:41:00,33.7,25.6,29.84,WSW,253,3.0,7.0,72,0.00,,CLR,0.00,VWS V14.01,2013-01-17 02:41:00,
2013-01-16 21:46:00,33.6,25.5,29.85,WSW,255,4.0,7.0,72,0.00,,CLR,0.00,VWS V14.01,2013-01-17 02:46:00,
2013-01-16 21:51:00,33.7,25.3,29.84,West,263,3.0,7.0,71,0.00,,CLR,0.00,VWS V14.01,2013-01-17 02:51:00,
2013-01-16 21:56:00,33.8,25.1,29.85,West,269,4.0,7.0,70,0.00,,CLR,0.00,VWS V14.01,2013-01-17 02:56:00,
2013-01-16 22:00:00,34.9,24.3,29.83,West,259,1.0,7.0,65,0.00,,OVC,0.00,VWS V14.01,2013-01-17 03:00:00,
2013-01-16 22:01:00,34.1,25.0,29.85,West,262,4.0,7.0,69,0.00,,CLR,0.00,VWS V14.01,2013-01-17 03:01:00,
2013-01-16 22:07:00,34.4,25.0,29.84,West,259,4.0,6.0,68,0.00,,CLR,0.00,VWS V14.01,2013-01-17 03:07:00,
2013-01-16 22:12:00,34.3,24.9,29.84,WSW,242,4.0,6.0,68,0.00,,CLR,0.00,VWS V14.01,2013-01-17 03:12:00,
2013-01-16 22:17:00,34.3,25.2,29.84,West,276,6.0,6.0,69,0.00,,CLR,0.00,VWS V14.01,2013-01-17 03:17:00,
2013-01-16 22:22:00,34.6,24.8,29.84,West,263,3.0,6.0,67,0.00,,CLR,0.00,VWS V14.01,2013-01-17 03:22:00,
2013-01-16 22:27:00,34.9,24.7,29.84,West,272,5.0,9.0,66,0.00,,CLR,0.00,VWS V14.01,2013-01-17 03:27:00,
2013-01-16 22:30:00,35.1,24.2,29.85,West,278,4.0,9.0,64,0.00,,OVC,0.00,VWS V14.01,2013-01-17 03:30:00,
2013-01-16 22:32:00,35.0,24.8,29.84,West,266,3.0,9.0,66,0.00,,CLR,0.00,VWS V14.01,2013-01-17 03:32:00,
2013-01-16 22:37:00,35.0,24.8,29.83,West,274,6.0,7.0,66,0.00,,CLR,0.00,VWS V14.01,2013-01-17 03:37:00,
2013-01-16 22:43:00,35.1,24.5,29.84,West,280,3.0,7.0,65,0.00,,CLR,0.00,VWS V14.01,2013-01-17 03:43:00,
2013-01-16 22:48:00,35.1,24.2,29.84,West,266,2.0,7.0,64,0.00,,CLR,0.00,VWS V14.01,2013-01-17 03:48:00,
2013-01-16 22:53:00,35.1,24.2,29.83,West,281,3.0,7.0,64,0.00,,CLR,0.00,VWS V14.01,2013-01-17 03:53:00,
2013-01-16 22:58:00,35.0,24.1,29.83,West,262,3.0,7.0,64,0.00,,CLR,0.00,VWS V14.01,2013-01-17 03:58:00,
2013-01-16 23:00:00,35.1,24.2,29.87,West,266,2.0,8.0,64,0.00,,OVC,0.00,VWS V14.01,2013-01-17 04:00:00,
2013-01-16 23:03:00,34.8,24.2,29.83,West,277,2.0,2.0,65,0.00,,CLR,0.00,VWS V14.01,2013-01-17 04:03:00,
2013-01-16 23:08:00,34.9,24.0,29.84,West,264,2.0,8.0,64,0.00,,CLR,0.00,VWS V14.01,2013-01-17 04:08:00,
2013-01-16 23:13:00,35.1,24.2,29.85,West,273,4.0,9.0,64,0.00,,CLR,0.00,VWS V14.01,2013-01-17 04:13:00,
2013-01-16 23:19:00,35.2,24.3,29.85,West,278,3.0,9.0,64,0.00,,CLR,0.00,VWS V14.01,2013-01-17 04:19:00,
2013-01-16 23:24:00,35.1,24.2,29.85,West,266,3.0,9.0,64,0.00,,CLR,0.00,VWS V14.01,2013-01-17 04:24:00,
2013-01-16 23:29:00,35.1,24.2,29.86,WNW,289,4.0,9.0,64,0.00,,CLR,0.00,VWS V14.01,2013-01-17 04:29:00,
2013-01-16 23:30:00,35.2,23.5,29.88,West,269,4.0,8.0,62,0.00,,OVC,0.00,VWS V14.01,2013-01-17 04:30:00,
2013-01-16 23:34:00,35.2,24.3,29.86,SW,231,4.0,5.0,64,0.00,,CLR,0.00,VWS V14.01,2013-01-17 04:34:00,
2013-01-16 23:39:00,35.3,23.6,29.86,WSW,253,4.0,8.0,62,0.00,,CLR,0.00,VWS V14.01,2013-01-17 04:39:00,
2013-01-16 23:44:00,35.3,24.0,29.86,West,264,4.0,8.0,63,0.00,,BKN060,0.00,VWS V14.01,2013-01-17 04:44:00,
2013-01-16 23:50:00,35.3,24.0,29.86,WSW,257,3.0,8.0,63,0.00,,BKN060,0.00,VWS V14.01,2013-01-17 04:50:00,
2013-01-16 23:55:00,35.3,24.0,29.86,WSW,250,4.0,8.0,63,0.00,,BKN060,0.00,VWS V14.01,2013-01-17 04:55:00,